FW1304 Weather Reports


Display with metric or nautical units.
time (UTC)temp
F
wind
direction
speed
MPH
gust
MPH
rain 1hr
in
rain 24hr
in
rain mn
in
humidity
%
barometer
mb
20260903074332 71 115 0.0 0.0 0.00 0.00 0.00 81 1008.6
20260903073836 71 119 0.0 0.0 0.00 0.00 0.00 80 1008.5
20260903073339 71 121 0.0 0.0 0.00 0.00 0.00 80 1008.5
20260903072825 72 123 0.0 0.0 0.00 0.00 0.00 80 1008.5
20260903072352 72 113 0.0 0.0 0.00 0.00 0.00 80 1008.6
20260903071845 72 113 0.0 0.0 0.00 0.00 0.00 79 1008.6
20260903071327 72 121 0.0 0.0 0.00 0.00 0.00 79 1008.6
20260903070830 72 123 0.0 0.0 0.00 0.00 0.00 79 1008.6
20260903070343 72 127 0.0 0.0 0.00 0.00 0.00 79 1008.7
20260903065857 72 121 0.0 0.0 0.00 0.00 0.00 79 1008.7
20260903065339 72 130 0.0 0.0 0.00 0.00 0.00 79 1008.7
20260903064843 72 101 0.0 0.0 0.00 0.00 0.00 78 1008.8
20260903064329 72 123 0.0 0.0 0.00 0.00 0.00 78 1008.8
20260903063858 73 113 0.0 0.0 0.00 0.00 0.00 78 1008.7
20260903063340 73 112 0.0 0.0 0.00 0.00 0.00 77 1008.8
20260903062836 73 109 0.0 0.0 0.00 0.00 0.00 77 1008.7
20260903062340 73 118 0.0 0.0 0.00 0.00 0.00 77 1008.7
20260903061839 73 101 0.0 0.0 0.00 0.00 0.00 77 1008.8
20260903061323 73 105 0.0 0.0 0.00 0.00 0.00 76 1008.9
20260903060855 73 105 0.0 0.0 0.00 0.00 0.00 76 1009.0
20260903060317 73 113 0.0 0.0 0.00 0.00 0.00 76 1009.0
20260903055858 74 103 0.0 0.0 0.00 0.00 0.00 76 1009.0
20260903055341 74 107 0.0 0.0 0.00 0.00 0.00 76 1009.1
20260903054844 74 94 0.0 0.0 0.00 0.00 0.00 75 1009.1
20260903054332 74 89 0.0 0.0 0.00 0.00 0.00 75 1009.1
20260903053900 74 67 0.0 0.0 0.00 0.00 0.00 75 1009.0
20260903053342 74 90 0.0 0.0 0.00 0.00 0.00 74 1009.1
20260903052836 74 100 0.0 0.0 0.00 0.00 0.00 74 1009.0
20260903052403 74 109 0.0 0.0 0.00 0.00 0.00 74 1009.0
20260903051817 75 71 0.0 0.0 0.00 0.00 0.00 74 1009.1
20260903051329 75 113 0.0 0.0 0.00 0.00 0.00 73 1009.0
20260903050833 75 88 0.0 0.0 0.00 0.00 0.00 73 1009.2
20260903050317 75 113 0.0 0.0 0.00 0.00 0.00 72 1009.1
20260903045829 75 101 0.0 0.0 0.00 0.00 0.00 72 1009.1
20260903045332 75 99 0.0 0.0 0.00 0.00 0.00 72 1009.2
20260903044836 75 122 0.0 0.0 0.00 0.00 0.00 71 1009.2
20260903044321 75 126 0.0 0.0 0.00 0.00 0.00 71 1009.2
20260903043821 75 94 0.0 0.0 0.00 0.00 0.00 70 1009.3
20260903043333 75 122 0.0 0.0 0.00 0.00 0.00 70 1009.4
20260903042819 75 67 0.0 0.0 0.00 0.00 0.00 70 1009.4
20260903042332 75 108 0.0 0.0 0.00 0.00 0.00 70 1009.3
20260903041834 75 106 0.0 0.0 0.00 0.00 0.00 70 1009.3
20260903041347 75 108 0.0 0.0 0.00 0.00 0.00 70 1009.3
20260903040827 75 79 0.0 0.0 0.00 0.00 0.00 70 1009.4
20260903040340 75 82 0.0 0.0 0.00 0.00 0.00 70 1009.3
20260903035830 76 102 0.0 0.0 0.00 0.00 0.00 70 1009.3
20260903035344 76 103 0.0 0.0 0.00 0.00 0.00 69 1009.4
20260903034830 76 105 0.0 0.0 0.00 0.00 0.00 69 1009.4
20260903034345 76 98 0.0 0.0 0.00 0.00 0.00 69 1009.4
20260903033825 76 96 0.0 0.0 0.00 0.00 0.00 69 1009.3
20260903033338 76 103 0.0 0.0 0.00 0.00 0.00 69 1009.4
20260903032824 76 119 0.0 0.0 0.00 0.00 0.00 68 1009.4
20260903032339 76 91 0.0 0.0 0.00 0.00 0.00 68 1009.5
20260903031818 77 99 0.0 0.0 0.00 0.00 0.00 68 1009.5
20260903031332 77 88 0.0 0.0 0.00 0.00 0.00 68 1009.4
20260903030836 77 111 0.0 0.0 0.00 0.00 0.00 67 1009.5
20260903030321 77 113 0.0 0.0 0.00 0.00 0.00 67 1009.5
20260903025839 77 101 0.0 0.0 0.00 0.00 0.00 67 1009.5
20260903025341 77 90 0.0 0.0 0.00 0.00 0.00 66 1009.5
20260903024844 77 91 0.0 0.0 0.00 0.00 0.00 66 1009.5
20260903024328 78 89 0.0 0.0 0.00 0.00 0.00 66 1009.4
20260903023857 78 102 0.0 0.0 0.00 0.00 0.00 66 1009.5
20260903023322 78 120 0.0 0.0 0.00 0.00 0.00 65 1009.5
20260903022818 78 95 0.0 0.0 0.00 0.00 0.00 65 1009.5
20260903022330 78 111 0.0 0.0 0.00 0.00 0.00 65 1009.4
20260903021834 78 111 0.0 0.0 0.00 0.00 0.00 65 1009.4
20260903021343 78 111 0.0 0.0 0.00 0.00 0.00 65 1009.4
20260903020825 78 111 0.0 0.0 0.00 0.00 0.00 64 1009.3
20260903020337 78 113 0.0 0.0 0.00 0.00 0.00 64 1009.2
20260903015824 78 113 0.0 0.0 0.00 0.00 0.00 64 1009.2
20260903015323 79 113 0.0 0.0 0.00 0.00 0.00 64 1009.2
20260903014835 79 128 0.0 0.0 0.00 0.00 0.00 64 1009.2
20260903014320 79 126 0.0 0.0 0.00 0.00 0.00 63 1009.1
20260903013823 79 126 0.0 0.0 0.00 0.00 0.00 63 1009.0
20260903013324 79 126 0.0 0.0 0.00 0.00 0.00 63 1009.0
20260903012839 79 127 0.0 0.0 0.00 0.00 0.00 62 1008.9
20260903012341 80 128 0.0 0.0 0.00 0.00 0.00 62 1008.9
20260903011844 80 127 0.0 0.0 0.00 0.00 0.00 61 1008.8
20260903011335 80 128 0.0 0.0 0.00 0.00 0.00 61 1008.8
20260903010817 80 128 0.0 0.0 0.00 0.00 0.00 61 1008.8
20260903010320 81 103 0.0 0.0 0.00 0.00 0.00 60 1008.7
20260903005836 81 106 0.0 0.0 0.00 0.00 0.00 60 1008.7
20260903005337 81 102 0.0 0.0 0.00 0.00 0.00 59 1008.7
20260903004837 81 109 0.0 0.0 0.00 0.00 0.00 59 1008.7
20260903004323 82 109 0.0 0.0 0.00 0.00 0.00 58 1008.7
20260903003856 82 108 0.0 0.0 0.00 0.00 0.00 58 1008.8
20260903003334 82 90 0.0 0.0 0.00 0.00 0.00 58 1008.8
20260903002819 82 67 0.0 0.0 0.00 0.00 0.00 57 1008.7
20260903002321 82 92 0.0 0.0 0.00 0.00 0.00 57 1008.7
20260903001835 83 113 0.0 0.0 0.00 0.00 0.00 57 1008.7
20260903001344 83 78 0.0 0.0 0.00 0.00 0.00 56 1008.7
20260903000817 83 121 0.0 0.0 0.00 0.00 0.00 56 1008.7
20260903000328 83 111 0.0 0.0 0.00 0.00 0.00 55 1008.7
20260902235843 83 98 0.0 0.0 0.00 0.00 0.00 54 1008.7
20260902235350 84 119 0.0 0.0 0.00 0.00 0.00 53 1008.7
20260902234840 84 138 0.0 1.0 0.00 0.00 0.00 52 1008.6
20260902234334 84 80 0.0 1.0 0.00 0.00 0.00 53 1008.6
20260902233837 84 49 0.0 0.0 0.00 0.00 0.00 53 1008.6
20260902233336 84 96 0.0 0.0 0.00 0.00 0.00 52 1008.6
20260902232817 84 30 0.0 0.0 0.00 0.00 0.00 52 1008.5
20260902232348 84 84 0.0 0.0 0.00 0.00 0.00 52 1008.6
20260902231830 85 76 0.0 0.0 0.00 0.00 0.00 53 1008.6
20260902231343 85 93 0.0 0.0 0.00 0.00 0.00 52 1008.6
20260902230825 85 45 0.0 1.0 0.00 0.00 0.00 53 1008.7
20260902230329 85 44 0.0 1.0 0.00 0.00 0.00 52 1008.7
20260902225817 85 98 0.0 2.0 0.00 0.00 0.00 52 1008.7
20260902225344 85 36 0.0 2.0 0.00 0.00 0.00 51 1008.7
20260902224818 85 29 0.0 1.0 0.00 0.00 0.00 51 1008.8
20260902224334 85 98 0.0 2.0 0.00 0.00 0.00 51 1008.7
20260902223837 86 35 0.0 2.0 0.00 0.00 0.00 50 1008.7
20260902223405 86 70 0.0 0.0 0.00 0.00 0.00 52 1008.7
20260902222832 86 109 0.0 0.0 0.00 0.00 0.00 52 1008.7
20260902222336 86 30 0.0 0.0 0.00 0.00 0.00 51 1008.7
20260902221821 86 59 0.0 1.0 0.00 0.00 0.00 52 1008.7
20260902221332 86 63 0.0 1.0 0.00 0.00 0.00 51 1008.8
20260902220836 86 5 0.0 2.0 0.00 0.00 0.00 51 1008.7
20260902220320 86 26 0.0 2.0 0.00 0.00 0.00 50 1008.7
20260902215845 86 30 0.0 1.0 0.00 0.00 0.00 49 1008.8
20260902215316 86 71 0.0 0.0 0.00 0.00 0.00 49 1008.8
20260902214818 87 55 0.0 1.0 0.00 0.00 0.00 50 1008.8
20260902214322 87 84 0.0 4.0 0.00 0.00 0.00 49 1008.9
20260902213822 87 111 0.0 4.0 0.00 0.00 0.00 49 1008.9
20260902213348 87 51 0.0 1.0 0.00 0.00 0.00 49 1008.9
20260902212840 87 39 0.0 1.0 0.00 0.00 0.00 50 1008.9
20260902212343 87 77 0.0 1.0 0.00 0.00 0.00 48 1009.0
20260902211818 87 63 0.0 0.0 0.00 0.00 0.00 51 1008.9
20260902211357 87 52 0.0 2.0 0.00 0.00 0.00 50 1009.0
20260902210821 87 49 0.0 0.0 0.00 0.00 0.00 49 1008.9
20260902210331 87 137 0.0 0.0 0.00 0.00 0.00 49 1009.0
20260902205844 87 126 0.0 0.0 0.00 0.00 0.00 49 1009.1
20260902205344 87 32 0.0 0.0 0.00 0.00 0.00 50 1009.0
20260902204818 87 138 0.0 0.0 0.00 0.00 0.00 49 1009.1
20260902204331 87 148 0.0 0.0 0.00 0.00 0.00 48 1009.1
20260902203902 87 148 0.0 0.0 0.00 0.00 0.00 47 1009.2
20260902203341 87 136 0.0 0.0 0.00 0.00 0.00 48 1009.2
20260902202905 88 132 0.0 0.0 0.00 0.00 0.00 48 1009.3
20260902202316 87 157 0.0 0.0 0.00 0.00 0.00 47 1009.2
20260902201848 87 197 0.0 0.0 0.00 0.00 0.00 46 1009.1
20260902201332 86 152 0.0 0.0 0.00 0.00 0.00 49 1009.2
20260902200835 86 138 0.0 0.0 0.00 0.00 0.00 47 1009.3
20260902200338 86 173 0.0 0.0 0.00 0.00 0.00 47 1009.3
20260902195852 86 138 0.0 1.0 0.00 0.00 0.00 48 1009.4
20260902195331 86 152 0.0 1.0 0.00 0.00 0.00 50 1009.4
20260902194904 85 22 0.0 1.0 0.00 0.00 0.00 48 1009.5
20260902194329 85 55 0.0 1.0 0.00 0.00 0.00 49 1009.6
20260902193833 85 46 0.0 1.0 0.00 0.00 0.00 50 1009.6
20260902193400 85 86 0.0 0.0 0.00 0.00 0.00 49 1009.6
20260902192834 85 29 0.0 0.0 0.00 0.00 0.00 49 1009.7
20260902192403 85 130 0.0 0.0 0.00 0.00 0.00 49 1009.8
20260902191840 85 37 0.0 0.0 0.00 0.00 0.00 49 1009.8
20260902191324 85 71 0.0 0.0 0.00 0.00 0.00 50 1009.8
20260902190836 85 173 0.0 0.0 0.00 0.00 0.00 50 1009.9
20260902190338 84 60 0.0 0.0 0.00 0.00 0.00 52 1009.9
20260902185821 84 5 0.0 1.0 0.00 0.00 0.00 51 1010.0
20260902185354 84 84 0.0 1.0 0.00 0.00 0.00 51 1010.1
20260902184836 84 126 0.0 0.0 0.00 0.00 0.00 52 1010.1
20260902184329 84 115 0.0 0.0 0.00 0.00 0.00 53 1010.1
20260902183828 83 171 0.0 0.0 0.00 0.00 0.00 54 1010.1
20260902183331 83 138 0.0 0.0 0.00 0.00 0.00 54 1010.2
20260902182821 83 102 0.0 0.0 0.00 0.00 0.00 52 1010.3
20260902182334 83 116 0.0 1.0 0.00 0.00 0.00 53 1010.3
20260902181834 83 148 0.0 1.0 0.00 0.00 0.00 55 1010.3
20260902181317 82 165 0.0 0.0 0.00 0.00 0.00 55 1010.5
20260902180820 82 116 0.0 0.0 0.00 0.00 0.00 57 1010.6
20260902180353 82 213 0.0 0.0 0.00 0.00 0.00 57 1010.6
20260902175843 82 208 0.0 0.0 0.00 0.00 0.00 60 1010.5
20260902175316 81 204 0.0 0.0 0.00 0.00 0.00 61 1010.5
20260902174819 81 113 0.0 0.0 0.00 0.00 0.00 60 1010.6
20260902174402 81 235 0.0 0.0 0.00 0.00 0.00 60 1010.6
20260902173840 81 133 0.0 0.0 0.00 0.00 0.00 60 1010.8
20260902173343 81 63 0.0 0.0 0.00 0.00 0.00 62 1010.6
20260902172839 80 205 0.0 0.0 0.00 0.00 0.00 62 1010.9
20260902172343 80 194 0.0 0.0 0.00 0.00 0.00 64 1011.0
20260902171820 80 132 0.0 1.0 0.00 0.00 0.00 63 1011.0
20260902171320 80 159 0.0 0.0 0.00 0.00 0.00 63 1011.0
20260902170832 79 160 0.0 0.0 0.00 0.00 0.00 63 1010.9
20260902170316 79 182 0.0 0.0 0.00 0.00 0.00 66 1011.0
20260902165826 79 117 0.0 0.0 0.00 0.00 0.00 63 1011.0
20260902165328 79 171 0.0 0.0 0.00 0.00 0.00 64 1011.0
20260902164830 78 5 0.0 0.0 0.00 0.00 0.00 65 1011.0
20260902164342 78 69 0.0 0.0 0.00 0.00 0.00 65 1011.1
20260902163849 78 68 0.0 0.0 0.00 0.00 0.00 66 1011.0
20260902163331 78 360 0.0 0.0 0.00 0.00 0.00 68 1011.1
20260902162816 77 29 0.0 0.0 0.00 0.00 0.00 68 1011.1
20260902162328 77 30 0.0 0.0 0.00 0.00 0.00 68 1010.9
20260902161827 77 84 0.0 0.0 0.00 0.00 0.00 70 1010.9
20260902161339 77 121 0.0 0.0 0.00 0.00 0.00 69 1011.1
20260902160840 76 278 0.0 0.0 0.00 0.00 0.00 69 1011.2
20260902160342 76 360 0.0 0.0 0.00 0.00 0.00 71 1011.2
20260902155833 76 300 0.0 0.0 0.00 0.00 0.00 70 1011.2
20260902155335 76 11 0.0 0.0 0.00 0.00 0.00 71 1011.0
20260902154839 76 28 0.0 0.0 0.00 0.00 0.00 71 1011.1
20260902154323 76 39 0.0 0.0 0.00 0.00 0.00 72 1011.0
20260902153852 75 36 0.0 0.0 0.00 0.00 0.00 71 1010.8
20260902153404 75 36 0.0 0.0 0.00 0.00 0.00 71 1010.9
20260902152829 75 49 0.0 0.0 0.00 0.00 0.00 73 1010.9
20260902152333 75 138 0.0 0.0 0.00 0.00 0.00 73 1010.8
20260902151830 74 187 0.0 0.0 0.00 0.00 0.00 74 1010.9
20260902151331 74 188 0.0 0.0 0.00 0.00 0.00 74 1010.7
20260902150816 74 188 0.0 0.0 0.00 0.00 0.00 74 1010.8
20260902150319 74 213 0.0 0.0 0.00 0.00 0.00 75 1011.0
20260902145836 74 213 0.0 0.0 0.00 0.00 0.00 74 1011.0
20260902145335 74 232 0.0 0.0 0.00 0.00 0.00 74 1011.0
20260902144818 74 236 0.0 0.0 0.00 0.00 0.00 73 1010.8
20260902144331 74 194 0.0 0.0 0.00 0.00 0.00 73 1010.8
20260902143833 74 207 0.0 0.0 0.00 0.00 0.00 73 1010.8
20260902143334 74 205 0.0 0.0 0.00 0.00 0.00 73 1010.9
20260902142819 74 161 0.0 0.0 0.00 0.00 0.00 73 1010.7
20260902142320 74 181 0.0 0.0 0.00 0.00 0.00 74 1010.7
20260902141852 74 182 0.0 0.0 0.00 0.00 0.00 75 1010.7
20260902141349 73 118 0.0 0.0 0.00 0.00 0.00 75 1010.8
20260902140831 73 117 0.0 0.0 0.00 0.00 0.00 76 1011.0
20260902140403 73 111 0.0 0.0 0.00 0.00 0.00 76 1011.0
20260902135850 72 5 0.0 0.0 0.00 0.00 0.00 78 1011.3
20260902135331 72 5 0.0 0.0 0.00 0.00 0.00 78 1011.3
20260902134834 71 5 0.0 0.0 0.00 0.00 0.00 79 1011.3
20260902134320 71 332 0.0 0.0 0.00 0.00 0.00 80 1011.3
20260902133846 70 238 0.0 0.0 0.00 0.00 0.00 82 1011.2
20260902133326 70 232 0.0 0.0 0.00 0.00 0.00 83 1011.2
20260902132859 69 172 0.0 0.0 0.00 0.00 0.00 84 1011.2
20260902132341 69 169 0.0 0.0 0.00 0.00 0.00 85 1011.1
20260902131840 68 169 0.0 0.0 0.00 0.00 0.00 85 1011.2
20260902131404 68 169 0.0 0.0 0.00 0.00 0.00 85 1011.0
20260902130827 67 170 0.0 0.0 0.00 0.00 0.00 85 1011.0
20260902130341 67 171 0.0 0.0 0.00 0.00 0.00 85 1011.0
20260902125839 67 171 0.0 0.0 0.00 0.00 0.00 85 1011.1
20260902125337 67 170 0.0 0.0 0.00 0.00 0.00 86 1011.3
20260902124818 67 176 0.0 0.0 0.00 0.00 0.00 86 1011.4
20260902124339 67 177 0.0 0.0 0.00 0.00 0.00 86 1011.3
20260902123841 67 177 0.0 0.0 0.00 0.00 0.00 86 1011.4
20260902123340 67 177 0.0 0.0 0.00 0.00 0.00 86 1011.4
20260902122835 67 178 0.0 0.0 0.00 0.00 0.00 86 1011.2
20260902122338 67 178 0.0 0.0 0.00 0.00 0.00 86 1011.3
20260902121842 67 178 0.0 0.0 0.00 0.00 0.00 85 1011.2
20260902121325 67 178 0.0 0.0 0.00 0.00 0.00 86 1011.1
20260902120857 67 178 0.0 0.0 0.00 0.00 0.00 85 1011.0
20260902120340 67 178 0.0 0.0 0.00 0.00 0.00 85 1010.9
20260902115827 67 196 0.0 0.0 0.00 0.00 0.00 85 1011.1
20260902115334 68 196 0.0 0.0 0.00 0.00 0.00 85 1011.1
20260902114837 68 200 0.0 0.0 0.00 0.00 0.00 85 1011.2
20260902114323 68 202 0.0 0.0 0.00 0.00 0.00 85 1011.3
20260902113826 68 202 0.0 0.0 0.00 0.00 0.00 84 1011.3
20260902113328 68 202 0.0 0.0 0.00 0.00 0.00 84 1011.2
20260902112842 68 202 0.0 0.0 0.00 0.00 0.00 84 1011.3
20260902112317 68 202 0.0 0.0 0.00 0.00 0.00 84 1011.2
20260902111820 68 202 0.0 0.0 0.00 0.00 0.00 83 1011.1
20260902111329 68 202 0.0 0.0 0.00 0.00 0.00 83 1011.1
20260902110831 68 202 0.0 0.0 0.00 0.00 0.00 83 1011.2
20260902110344 68 202 0.0 0.0 0.00 0.00 0.00 83 1011.1
20260902105831 69 202 0.0 0.0 0.00 0.00 0.00 82 1011.2
20260902105334 69 202 0.0 0.0 0.00 0.00 0.00 82 1011.2
20260902104835 69 202 0.0 0.0 0.00 0.00 0.00 82 1011.3
20260902104320 69 202 0.0 0.0 0.00 0.00 0.00 82 1011.3
20260902103823 69 212 0.0 0.0 0.00 0.00 0.00 81 1011.3
20260902103355 69 206 0.0 0.0 0.00 0.00 0.00 81 1011.4
20260902102844 69 201 0.0 0.0 0.00 0.00 0.00 81 1011.4
20260902102318 69 208 0.0 0.0 0.00 0.00 0.00 81 1011.5
20260902101821 69 209 0.0 0.0 0.00 0.00 0.00 80 1011.3
20260902101401 69 59 0.0 0.0 0.00 0.00 0.00 80 1010.9
20260902100842 69 55 0.0 0.0 0.00 0.00 0.00 80 1010.9
20260902100328 69 55 0.0 0.0 0.00 0.00 0.00 79 1010.8
20260902095845 69 55 0.0 0.0 0.00 0.00 0.00 79 1010.5
20260902095337 69 49 0.0 0.0 0.00 0.00 0.00 79 1010.4
20260902094838 69 46 0.0 0.0 0.00 0.00 0.00 80 1010.4
20260902094340 69 47 0.0 0.0 0.00 0.00 0.00 80 1010.4
20260902093844 69 48 0.0 0.0 0.00 0.00 0.00 80 1010.3
20260902093318 69 41 0.0 0.0 0.00 0.00 0.00 81 1010.3
20260902092905 69 34 0.0 0.0 0.00 0.00 0.00 81 1010.3
20260902092317 69 80 0.0 0.0 0.00 0.00 0.00 81 1010.2
20260902091820 69 124 0.0 0.0 0.00 0.00 0.00 80 1010.1
20260902091332 69 131 0.0 0.0 0.00 0.00 0.00 80 1010.1
20260902090901 69 139 0.0 0.0 0.00 0.00 0.00 80 1010.3
20260902090343 69 139 0.0 0.0 0.00 0.00 0.00 80 1010.1
20260902085837 69 140 0.0 0.0 0.00 0.00 0.00 80 1010.0
20260902085321 69 140 0.0 1.0 0.00 0.00 0.00 80 1010.1
20260902084818 69 140 0.0 1.0 0.00 0.00 0.00 80 1010.1
20260902084322 69 151 0.0 0.0 0.00 0.00 0.00 80 1010.4
20260902083831 69 151 0.0 0.0 0.00 0.00 0.00 79 1010.6
20260902083344 69 151 0.0 0.0 0.00 0.00 0.00 79 1010.6
20260902082826 69 151 0.0 0.0 0.00 0.00 0.00 80 1010.6
20260902082329 69 151 0.0 0.0 0.00 0.00 0.00 80 1010.8
20260902081841 69 151 0.0 0.0 0.00 0.00 0.00 80 1010.7
20260902081328 69 153 0.0 0.0 0.00 0.00 0.00 80 1010.7
20260902080831 69 180 0.0 0.0 0.00 0.00 0.00 80 1010.8
20260902080333 69 161 0.0 0.0 0.00 0.00 0.00 81 1011.1
20260902075847 69 188 0.0 0.0 0.00 0.00 0.00 81 1010.9
20260902075339 69 156 0.0 0.0 0.00 0.00 0.00 81 1010.7
20260902074836 69 215 0.0 0.0 0.00 0.00 0.00 81 1010.8